TimeEST,TemperatureF,Dew PointF,Humidity,Sea Level PressureIn,VisibilityMPH,Wind Direction,Wind SpeedMPH,Gust SpeedMPH,PrecipitationIn,Events,Conditions,WindDirDegrees,DateUTC
12:15 AM,42.8,37.4,81,29.89,10.0,West,8.1,-,N/A,,Clear,270,2013-02-20 05:15:00
12:35 AM,42.8,37.4,81,29.89,10.0,West,5.8,-,N/A,,Clear,280,2013-02-20 05:35:00
12:55 AM,41.0,37.4,87,29.90,10.0,West,5.8,-,N/A,,Clear,270,2013-02-20 05:55:00
1:15 AM,41.0,37.4,87,29.90,10.0,West,5.8,-,N/A,,Clear,280,2013-02-20 06:15:00
1:35 AM,39.2,35.6,87,29.91,10.0,West,8.1,-,N/A,,Clear,280,2013-02-20 06:35:00
1:55 AM,39.2,35.6,87,29.91,10.0,West,8.1,-,N/A,,Clear,280,2013-02-20 06:55:00
2:15 AM,39.2,33.8,81,29.92,10.0,West,6.9,-,N/A,,Clear,280,2013-02-20 07:15:00
2:35 AM,39.2,33.8,81,29.92,10.0,WNW,9.2,-,N/A,,Clear,290,2013-02-20 07:35:00
2:55 AM,39.2,30.2,70,29.93,10.0,WNW,8.1,-,N/A,,Clear,300,2013-02-20 07:55:00
3:15 AM,39.2,28.4,65,29.93,10.0,WNW,8.1,-,N/A,,Clear,300,2013-02-20 08:15:00
3:35 AM,39.2,28.4,65,29.93,10.0,WNW,6.9,-,N/A,,Clear,290,2013-02-20 08:35:00
3:55 AM,37.4,26.6,65,29.93,10.0,WNW,5.8,-,N/A,,Clear,290,2013-02-20 08:55:00
4:15 AM,37.4,26.6,65,29.94,10.0,West,5.8,-,N/A,,Clear,280,2013-02-20 09:15:00
4:35 AM,35.6,26.6,70,29.94,10.0,West,5.8,-,N/A,,Clear,270,2013-02-20 09:35:00
4:55 AM,35.6,26.6,70,29.95,10.0,West,6.9,-,N/A,,Clear,270,2013-02-20 09:55:00
5:15 AM,35.6,26.6,70,29.96,10.0,West,8.1,-,N/A,,Clear,270,2013-02-20 10:15:00
5:35 AM,35.6,26.6,70,29.97,10.0,West,8.1,-,N/A,,Clear,260,2013-02-20 10:35:00
5:55 AM,35.6,26.6,70,29.98,10.0,West,6.9,-,N/A,,Clear,280,2013-02-20 10:55:00
6:15 AM,35.6,24.8,65,29.98,10.0,West,10.4,-,N/A,,Clear,280,2013-02-20 11:15:00
6:35 AM,35.6,21.2,56,29.99,10.0,West,10.4,17.3,N/A,,Clear,280,2013-02-20 11:35:00
7:15 AM,35.6,21.2,56,30.02,10.0,WNW,5.8,-,N/A,,Clear,290,2013-02-20 12:15:00
7:35 AM,35.6,23.0,60,30.02,10.0,West,5.8,-,N/A,,Clear,280,2013-02-20 12:35:00
7:55 AM,37.4,23.0,56,30.02,10.0,West,9.2,-,N/A,,Clear,280,2013-02-20 12:55:00
8:15 AM,37.4,21.2,52,30.03,10.0,WNW,10.4,-,N/A,,Clear,300,2013-02-20 13:15:00
8:35 AM,37.4,21.2,52,30.03,10.0,West,10.4,18.4,N/A,,Clear,280,2013-02-20 13:35:00
9:15 AM,41.0,19.4,42,30.04,10.0,West,10.4,19.6,N/A,,Clear,280,2013-02-20 14:15:00
9:35 AM,42.8,19.4,39,30.04,10.0,West,11.5,-,N/A,,Clear,260,2013-02-20 14:35:00
10:15 AM,42.8,17.6,36,30.04,10.0,West,9.2,17.3,N/A,,Clear,270,2013-02-20 15:15:00
10:35 AM,44.6,17.6,34,30.04,10.0,WNW,11.5,21.9,N/A,,Clear,300,2013-02-20 15:35:00
10:55 AM,44.6,17.6,34,30.04,10.0,NW,13.8,-,N/A,,Clear,310,2013-02-20 15:55:00
11:15 AM,44.6,17.6,34,30.04,10.0,WNW,15.0,20.7,N/A,,Clear,300,2013-02-20 16:15:00
11:35 AM,46.4,17.6,32,30.04,10.0,West,16.1,23.0,N/A,,Clear,270,2013-02-20 16:35:00
11:55 AM,44.6,17.6,34,30.03,10.0,NW,6.9,23.0,N/A,,Clear,310,2013-02-20 16:55:00
12:15 PM,46.4,17.6,32,30.02,10.0,WSW,12.7,18.4,N/A,,Clear,250,2013-02-20 17:15:00
12:35 PM,46.4,17.6,32,30.01,10.0,West,13.8,18.4,N/A,,Clear,270,2013-02-20 17:35:00
12:55 PM,46.4,17.6,32,30.01,10.0,West,12.7,23.0,N/A,,Clear,280,2013-02-20 17:55:00
1:15 PM,48.2,17.6,30,30.00,10.0,NW,10.4,-,N/A,,Clear,310,2013-02-20 18:15:00
1:35 PM,48.2,17.6,30,30.00,10.0,WNW,11.5,18.4,N/A,,Clear,290,2013-02-20 18:35:00
1:55 PM,48.2,17.6,30,30.00,10.0,West,13.8,19.6,N/A,,Clear,260,2013-02-20 18:55:00
2:15 PM,48.2,17.6,30,30.00,10.0,West,12.7,16.1,N/A,,Clear,270,2013-02-20 19:15:00
2:35 PM,48.2,17.6,30,30.00,10.0,West,11.5,17.3,N/A,,Clear,280,2013-02-20 19:35:00
2:55 PM,48.2,17.6,30,30.00,10.0,West,11.5,-,N/A,,Clear,280,2013-02-20 19:55:00
3:15 PM,48.2,15.8,27,29.99,10.0,WSW,9.2,-,N/A,,Clear,250,2013-02-20 20:15:00
3:35 PM,48.2,17.6,30,29.99,10.0,West,12.7,19.6,N/A,,Clear,260,2013-02-20 20:35:00
3:55 PM,48.2,15.8,27,30.00,10.0,WNW,15.0,20.7,N/A,,Clear,300,2013-02-20 20:55:00
4:15 PM,48.2,17.6,30,30.00,10.0,WNW,11.5,-,N/A,,Clear,300,2013-02-20 21:15:00
4:35 PM,48.2,17.6,30,30.00,10.0,WNW,13.8,17.3,N/A,,Clear,290,2013-02-20 21:35:00
4:55 PM,48.2,15.8,27,30.01,10.0,WNW,9.2,16.1,N/A,,Clear,300,2013-02-20 21:55:00
5:15 PM,46.4,17.6,32,30.01,10.0,WNW,11.5,-,N/A,,Clear,300,2013-02-20 22:15:00
5:35 PM,46.4,17.6,32,30.02,10.0,West,10.4,17.3,N/A,,Clear,280,2013-02-20 22:35:00
5:55 PM,44.6,17.6,34,30.03,10.0,WNW,8.1,-,N/A,,Clear,300,2013-02-20 22:55:00
6:15 PM,42.8,17.6,36,30.04,10.0,NW,5.8,-,N/A,,Clear,310,2013-02-20 23:15:00
6:35 PM,42.8,17.6,36,30.05,10.0,WNW,6.9,-,N/A,,Clear,300,2013-02-20 23:35:00
6:55 PM,39.2,17.6,42,30.06,10.0,Calm,Calm,-,N/A,,Clear,0,2013-02-20 23:55:00
7:15 PM,37.4,21.2,52,30.07,10.0,Calm,Calm,-,N/A,,Clear,0,2013-02-21 00:15:00
7:35 PM,37.4,19.4,48,30.07,10.0,NW,5.8,-,N/A,,Clear,310,2013-02-21 00:35:00
7:55 PM,35.6,24.8,65,30.08,10.0,Calm,Calm,-,N/A,,Clear,0,2013-02-21 00:55:00
8:15 PM,35.6,23.0,60,30.07,10.0,Calm,Calm,-,N/A,,Clear,0,2013-02-21 01:15:00
8:35 PM,35.6,21.2,56,30.10,10.0,North,8.1,18.4,N/A,,Clear,360,2013-02-21 01:35:00
8:55 PM,35.6,23.0,60,30.12,10.0,NE,3.5,-,N/A,,Clear,50,2013-02-21 01:55:00
9:15 PM,35.6,23.0,60,30.13,10.0,NNE,5.8,-,N/A,,Clear,30,2013-02-21 02:15:00
9:35 PM,35.6,23.0,60,30.14,10.0,NNE,4.6,-,N/A,,Clear,20,2013-02-21 02:35:00
9:55 PM,35.6,19.4,52,30.15,10.0,North,4.6,-,N/A,,Clear,10,2013-02-21 02:55:00
10:15 PM,35.6,19.4,52,30.15,10.0,NNW,9.2,-,N/A,,Clear,340,2013-02-21 03:15:00
10:35 PM,33.8,19.4,56,30.15,10.0,North,6.9,-,N/A,,Clear,10,2013-02-21 03:35:00
10:55 PM,33.8,19.4,56,30.16,10.0,NE,3.5,-,N/A,,Clear,50,2013-02-21 03:55:00
11:35 PM,33.8,17.6,52,30.16,10.0,NNE,6.9,-,N/A,,Clear,20,2013-02-21 04:35:00
11:55 PM,32.0,17.6,55,30.15,10.0,NNE,5.8,-,N/A,,Clear,20,2013-02-21 04:55:00